Flight Information

DEPARTURE
RIVERSIDE, CA
Elevation:
818
Runways:
H1 - 60x60 - ASPH-G
16/34 - 2850x50 - ASPH-F
9/27 - 5401x100 - ASPH-G
ATIS:
128.8 951-688-7257
Ground:
121.7
Tower:
121
DESTINATION
,
Elevation:
TPA:
1000 (est.)


6748.4 NM74° True-14° Var60° HDG

Flight Plan:
(click to file on line)

1. Type
2. Aircraft Identification
3. Aircraft Type / Special Equipment
4. True Airspeed
kts
5. Departure Airport
(ICAO code)
6. Arriving Airport
(ICAO code)
7. Cruising Altitude
ft
8. Alternate Airport
(ICAO code)
9. Route of Flight
10. Remarks


00:00:00 Departure ATIS: Destination ATIS:

Clearance Limit:
Route:
Altitude: Expect in minutes
Frequency:
Transponder: (7500 Hijack / 7600 Lost Comms / 7700 Emergency)


KRAL 261353Z 00000KT 10SM CLR 19/11 A2998 RMK AO2 SLP136 T01890106
Time: 2022-06-26T13:53:00Z
1656253827
Winds: calm
Visibility: 10.0 sm
Clouds (AGL): CLR
Temperature: 18.9 C
Dew Point: 10.6 C
Pressure: 29.97933 in Hgbr


Notes:

Data extracted from FAA Digital Chart Supplement. Effective: 0901Z Thursday, 27 JAN 2022 to 0900z Thursday, 24 MAR 2022
Current ATIS data is provided courtisy of PilotEdge.